HULIANGWANG DIGUI-06

导读

HULIANWANG DIGUI-06(卫星互联网低轨06组卫星),是中国GW巨型卫星互联网星座的组网卫星,属于我国空天一体6G互联网建设的重要组成部分。该卫星于2024年12月16日发射进入预定轨道,运行于近地低轨轨道。作为GW星座的组网卫星,它将和其他卫星共同构建覆盖全球的卫星互联网,未来可支持手机直连卫星通信,提供低时延、大带宽的全球互联服务。

基本信息
目录编号:
62328
目录名称:
HULIANWANG DIGUI-06
国际标识:
2024-240F
轨道中心:
EARTH
卫星名称:
HULIANWANG DIGUI-06
卫星全名:
HULIANGWANG DIGUI-06
卫星状态:
在轨 (已飞行543 天)
发射日期:
2024-12-16 UTC
国别 :
中国 (CN)
星等 :
--
轨道信息
数据来源 国际轨道数据 AOE轨道数据
星历时间 2026-06-12T14:38:07+0800
13小时前
查看轨道信息
2026-06-12T07:00:00+0800
20小时前
查看轨道信息
半长轴 7546.071km 7546.074km
偏心率 0.0001401 0.0001271
轨道倾角 86.497° 86.497°
近地点辐角 101.671° 102.268°
升交点赤经 344.768° 344.876°
平近点角 258.458° 181.883°
近地点 1166.876km 1166.977km
远地点 1168.992km 1168.897km
周期 108.728分钟 108.728分钟
每日圈数 13.244071 13.244061
详细信息
使用方式:
暂无
2D轨道图
3D轨道图
轨道高度分析图
轨道倾角分析图
轨道综合分析图
查看轨道综合分析图